TimeCDT,TemperatureF,Dew PointF,Humidity,Sea Level PressureIn,VisibilityMPH,Wind Direction,Wind SpeedMPH,Gust SpeedMPH,PrecipitationIn,Events,Conditions,WindDirDegrees,DateUTC
12:09 AM,60.8,57.2,88,29.78,10.0,Calm,Calm,-,N/A,,Overcast,0,2013-06-10 05:09:00
12:28 AM,60.8,57.2,88,29.78,10.0,Calm,Calm,-,N/A,,Overcast,0,2013-06-10 05:28:00
12:41 AM,60.8,57.2,88,29.78,10.0,Calm,Calm,-,N/A,,Overcast,0,2013-06-10 05:41:00
12:52 AM,61.0,59.0,93,29.77,10.0,Calm,Calm,-,N/A,,Overcast,0,2013-06-10 05:52:00
1:06 AM,60.8,59.0,94,29.78,10.0,Calm,Calm,-,N/A,,Overcast,0,2013-06-10 06:06:00
1:19 AM,60.8,59.0,94,29.77,10.0,Calm,Calm,-,N/A,,Overcast,0,2013-06-10 06:19:00
1:52 AM,62.1,59.0,90,29.77,10.0,Calm,Calm,-,N/A,,Overcast,0,2013-06-10 06:52:00
2:42 AM,62.6,59.0,88,29.77,10.0,Calm,Calm,-,N/A,,Overcast,0,2013-06-10 07:42:00
2:52 AM,62.1,59.0,90,29.77,10.0,Calm,Calm,-,N/A,,Overcast,0,2013-06-10 07:52:00
3:18 AM,62.6,59.0,88,29.78,10.0,Calm,Calm,-,N/A,,Overcast,0,2013-06-10 08:18:00
3:52 AM,62.1,59.0,90,29.77,10.0,Calm,Calm,-,N/A,,Overcast,0,2013-06-10 08:52:00
4:25 AM,60.8,57.2,88,29.77,10.0,WSW,3.5,-,N/A,,Scattered Clouds,240,2013-06-10 09:25:00
4:35 AM,59.0,57.2,94,29.77,10.0,Calm,Calm,-,N/A,,Mostly Cloudy,0,2013-06-10 09:35:00
4:42 AM,59.0,57.2,94,29.77,10.0,WNW,3.5,-,N/A,,Partly Cloudy,300,2013-06-10 09:42:00
4:52 AM,59.0,57.9,96,29.77,10.0,Calm,Calm,-,N/A,,Scattered Clouds,0,2013-06-10 09:52:00
5:38 AM,57.2,55.4,94,29.78,2.5,WNW,3.5,-,N/A,,Mostly Cloudy,290,2013-06-10 10:38:00
5:41 AM,57.2,55.4,94,29.79,1.0,West,5.8,-,N/A,,Mist,280,2013-06-10 10:41:00
5:48 AM,59.0,57.2,94,29.79,0.2,WNW,4.6,-,N/A,Fog,Fog,290,2013-06-10 10:48:00
5:52 AM,59.0,59.0,100,29.79,0.2,WNW,4.6,-,N/A,Fog,Fog,290,2013-06-10 10:52:00
6:52 AM,60.1,60.1,100,29.81,0.5,NW,4.6,-,N/A,Fog,Fog,310,2013-06-10 11:52:00
7:02 AM,60.8,60.8,100,29.82,1.2,NW,5.8,-,N/A,,Overcast,310,2013-06-10 12:02:00
7:06 AM,60.8,59.0,94,29.82,3.0,NNW,4.6,-,N/A,,Overcast,340,2013-06-10 12:06:00
7:52 AM,61.0,60.1,97,29.82,8.0,North,5.8,-,N/A,,Overcast,360,2013-06-10 12:52:00
8:18 AM,62.6,60.8,94,29.82,10.0,Variable,4.6,-,N/A,,Overcast,0,2013-06-10 13:18:00
8:52 AM,64.0,60.1,87,29.83,10.0,WNW,5.8,-,N/A,,Overcast,300,2013-06-10 13:52:00
9:33 AM,64.4,60.8,88,29.84,10.0,West,3.5,-,N/A,,Overcast,280,2013-06-10 14:33:00
9:52 AM,64.9,60.1,84,29.84,10.0,NNW,3.5,-,N/A,,Overcast,330,2013-06-10 14:52:00
10:34 AM,66.2,60.8,83,29.85,10.0,Variable,3.5,-,N/A,,Overcast,0,2013-06-10 15:34:00
10:52 AM,66.9,61.0,81,29.86,10.0,NW,6.9,-,N/A,,Overcast,310,2013-06-10 15:52:00
11:52 AM,69.1,61.0,75,29.87,10.0,NNW,6.9,-,N/A,,Overcast,340,2013-06-10 16:52:00
12:52 PM,70.0,62.1,76,29.87,10.0,WNW,3.5,-,N/A,,Overcast,300,2013-06-10 17:52:00
1:52 PM,70.0,61.0,73,29.87,10.0,NNW,9.2,-,N/A,,Overcast,330,2013-06-10 18:52:00
2:25 PM,71.6,60.8,69,29.87,10.0,WNW,6.9,-,N/A,,Scattered Clouds,300,2013-06-10 19:25:00
2:52 PM,73.9,61.0,64,29.87,10.0,WNW,5.8,17.3,N/A,,Partly Cloudy,300,2013-06-10 19:52:00
3:52 PM,77.0,61.0,58,29.85,10.0,NNW,5.8,-,N/A,,Clear,330,2013-06-10 20:52:00
4:52 PM,78.1,62.1,58,29.85,10.0,Variable,5.8,-,N/A,,Clear,0,2013-06-10 21:52:00
5:52 PM,78.1,61.0,56,29.85,10.0,WNW,8.1,-,N/A,,Clear,300,2013-06-10 22:52:00
6:52 PM,78.1,62.1,58,29.85,10.0,NNW,5.8,-,N/A,,Clear,340,2013-06-10 23:52:00
7:52 PM,75.9,62.1,62,29.85,10.0,NNE,3.5,-,N/A,,Clear,20,2013-06-11 00:52:00
8:52 PM,73.0,61.0,66,29.86,10.0,Calm,Calm,-,N/A,,Clear,0,2013-06-11 01:52:00
9:52 PM,68.0,61.0,78,29.87,10.0,Calm,Calm,-,N/A,,Clear,0,2013-06-11 02:52:00
10:52 PM,66.0,61.0,84,29.88,10.0,Calm,Calm,-,N/A,,Clear,0,2013-06-11 03:52:00
11:52 PM,64.0,60.1,87,29.88,10.0,Calm,Calm,-,N/A,,Clear,0,2013-06-11 04:52:00